Olympia, WA
on Friday, November 9, 2012

Friday
Previous Day Next Day
Daily Summary
 ActualAverageRecord
Temperature
Mean Temperature °F 45°F  
Max Temperature 49°F 52°F 62°F (1956)
Min Temperature 25°F 38°F 23°F (1978)
Degree Days
Heating Degree Days 28 20  
Month to date heating degree days 144 174  
Since 1 July heating degree days 922 968  
Cooling Degree Days 0 0  
Month to date cooling degree days 0 0  
Year to date cooling degree days 82 106  
Moisture
Dew Point 28°F   
Average Humidity 77    
Maximum Humidity 100    
Minimum Humidity 53    
Precipitation
Precipitation 0.00 in 0.27 in 1.52 in (1961)
Month to date precipitation 1.26 2.29  
Year to date precipitation 41.96 36.20  
Wind
Wind Speed 1 mph   
Max Wind Speed 8 mph   
Max Gust Speed 10 mph   
Visibility 4 miles   
Events Fog   

Key: T is trace of precipitation, MM is missing value
Source: NWS Daily Summary
Time(PST)TemperatureDew PointHumidity Pressure Visibility Wind DirectionWind SpeedGust SpeedPrecipitationEvents Conditions
12:32 AM 28.4°F 28.4°F 100% 29.86 in 1.8 miles Calm Calm - N/A   Partly Cloudy
12:35 AM 28.4°F 28.4°F 100% 29.86 in 0.8 miles Calm Calm - N/A   Scattered Clouds
12:44 AM 26.6°F 26.6°F 100% 29.86 in 1.8 miles South 3.5 mph - N/A   Partly Cloudy
12:46 AM 26.6°F 26.6°F 100% 29.86 in 4.0 miles Calm Calm - N/A   Partly Cloudy
12:54 AM 30.0°F 28.0°F 92% 29.86 in 5.0 miles Calm Calm - N/A   Partly Cloudy
1:54 AM 30.0°F 28.0°F 92% 29.87 in 4.0 miles Calm Calm - N/A   Clear
2:04 AM 28.4°F 26.6°F 93% 29.86 in 1.8 miles Calm Calm - N/A   Clear
2:09 AM 26.6°F 26.6°F 100% 29.87 in 3.0 miles Calm Calm - N/A   Clear
2:54 AM 28.0°F 27.0°F 96% 29.87 in 6.0 miles Calm Calm - N/A   Clear
3:30 AM 26.6°F 26.6°F 100% 29.87 in 5.0 miles Calm Calm - N/A   Partly Cloudy
3:54 AM 27.0°F 26.1°F 96% 29.87 in 5.0 miles Calm Calm - N/A   Clear
4:54 AM 27.0°F 25.0°F 92% 29.88 in 6.0 miles Calm Calm - N/A   Clear
5:02 AM 26.6°F 24.8°F 93% 29.88 in 1.8 miles Calm Calm - N/A   Clear
5:10 AM 24.8°F 23.0°F 93% 29.88 in 3.0 miles Calm Calm - N/A   Clear
5:26 AM 26.6°F 24.8°F 93% 29.88 in 6.0 miles Calm Calm - N/A   Scattered Clouds
5:34 AM 26.6°F 24.8°F 93% 29.88 in 2.0 miles Calm Calm - N/A   Mostly Cloudy
5:39 AM 26.6°F 24.8°F 93% 29.88 in 1.2 miles Calm Calm - N/A   Mostly Cloudy
5:54 AM 26.1°F 25.0°F 96% 29.89 in 0.8 miles Calm Calm - N/A   Mist
6:11 AM 26.6°F 24.8°F 93% 29.88 in 0.2 miles Calm Calm - N/A Fog Light Freezing Fog
6:21 AM 26.6°F 26.6°F 100% 29.88 in 0.5 miles Calm Calm - N/A Fog Light Freezing Fog
6:42 AM 26.6°F 24.8°F 93% 29.89 in 0.2 miles Calm Calm - N/A Fog Light Freezing Fog
6:54 AM 27.0°F 26.1°F 96% 29.89 in 0.5 miles Calm Calm - N/A Fog Light Freezing Fog
7:06 AM 28.4°F 26.6°F 93% 29.89 in 1.2 miles Calm Calm - N/A   Overcast
7:17 AM 26.6°F 26.6°F 100% 29.89 in 0.8 miles Calm Calm - N/A   Overcast
7:30 AM 26.6°F 26.6°F 100% 29.90 in 1.0 miles Calm Calm - N/A   Overcast
7:39 AM 28.4°F 26.6°F 93% 29.90 in 1.5 miles Calm Calm - N/A   Overcast
7:44 AM 28.4°F 26.6°F 93% 29.90 in 3.0 miles Calm Calm - N/A   Overcast
7:54 AM 28.0°F 27.0°F 96% 29.91 in 4.0 miles Calm Calm - N/A   Mostly Cloudy
8:54 AM 32.0°F 30.9°F 96% 29.91 in 5.0 miles Calm Calm - N/A   Partly Cloudy
9:54 AM 37.9°F 36.0°F 93% 29.91 in 8.0 miles Calm Calm - N/A   Mostly Cloudy
10:54 AM 42.1°F 37.0°F 82% 29.91 in 10.0 miles Calm Calm - N/A   Partly Cloudy
11:54 AM 45.0°F 36.0°F 71% 29.91 in 10.0 miles Calm Calm - N/A   Mostly Cloudy
12:54 PM 48.0°F 33.1°F 56% 29.89 in 10.0 miles East 5.8 mph - N/A   Scattered Clouds
1:54 PM 46.9°F 30.9°F 54% 29.88 in 10.0 miles ESE 4.6 mph - N/A   Mostly Cloudy
2:54 PM 48.0°F 34.0°F 58% 29.88 in 10.0 miles ENE 6.9 mph - N/A   Scattered Clouds
3:54 PM 45.0°F 33.1°F 63% 29.88 in 10.0 miles NNE 6.9 mph - N/A   Partly Cloudy
4:54 PM 37.9°F 30.9°F 76% 29.90 in 10.0 miles Calm Calm - N/A   Partly Cloudy
5:54 PM 35.1°F 32.0°F 89% 29.91 in 10.0 miles Calm Calm - N/A   Clear
6:54 PM 33.1°F 30.9°F 92% 29.92 in 10.0 miles Calm Calm - N/A   Clear
7:54 PM 30.9°F 28.9°F 92% 29.93 in 8.0 miles Calm Calm - N/A   Overcast
8:54 PM 30.0°F 28.9°F 96% 29.94 in 1.8 miles Calm Calm - N/A   Partly Cloudy
9:03 PM 30.2°F 28.4°F 93% 29.93 in 3.0 miles Calm Calm - N/A   Partly Cloudy
9:54 PM 28.9°F 27.0°F 92% 29.95 in 1.8 miles Calm Calm - N/A   Partly Cloudy
10:10 PM 26.6°F 24.8°F 93% 29.94 in 6.0 miles Calm Calm - N/A   Clear
10:35 PM 26.6°F 26.6°F 100% 29.94 in 1.5 miles Calm Calm - N/A   Clear
10:39 PM 26.6°F 26.6°F 100% 29.95 in 0.8 miles Calm Calm - N/A   Clear
10:49 PM 28.4°F 26.6°F 93% 29.95 in 1.5 miles Calm Calm - N/A   Clear
10:54 PM 28.0°F 26.1°F 92% 29.96 in 3.0 miles Calm Calm - N/A   Clear
11:04 PM 28.4°F 26.6°F 93% 29.95 in 1.5 miles SSE 3.5 mph - N/A   Clear
11:08 PM 26.6°F 26.6°F 100% 29.95 in 0.8 miles Calm Calm - N/A   Clear
11:15 PM 26.6°F 24.8°F 93% 29.95 in 1.5 miles SE 3.5 mph - N/A   Clear
11:17 PM 26.6°F 24.8°F 93% 29.95 in 3.0 miles Calm Calm - N/A   Clear
11:54 PM 26.1°F 25.0°F 96% 29.97 in 5.0 miles Calm Calm - N/A   Clear
Moon Phase
Nov. 09 Nov. 13 Nov. 20 Nov. 28 Dec. 06
Sunrise:07:06 AM (PST) Moon Rise:01:54 AM (PST)11/9
Sunset:04:43 PM (PST) Moon Set:02:14 PM (PST)11/9

Copyright © 2014 The Weather Underground, Inc.